Simultaneous Nadir Overpasses (SNOs) Predictions

Prediction of SNOs between FY3D and LANDSAT-8 Satellite Orbit:

Table of predicted SNOs for the next 14.0 days since TLE Epoch: 7/6/2019
Index Date (FY3D) Time (FY3D) Lat,Lon (FY3D) SZA (FY3D ) Date (LANDSAT-8) Time (LANDSAT-8) Lat,Lon (LANDSAT-8) SZA (LANDSAT-8 ) Distance(km) Time Diff (sec)
1 07/06/2019 10:21:04 70.52, 21.52 47.80 07/06/2019 10:22:08 70.51, 21.49 47.78 1.76 64
2 07/06/2019 11:11:46 -70.42,-171.00 132.31 07/06/2019 11:11:37 -70.45,-170.97 132.28 3.10 9
3 07/06/2019 12:02:22 69.93, -2.94 47.19 07/06/2019 12:01:11 69.97, -4.02 47.26 41.27 71
4 07/09/2019 02:37:31 70.53, 137.40 48.10 07/09/2019 02:38:37 70.54, 137.43 48.10 2.21 66
5 07/09/2019 03:28:13 -70.42, -55.12 132.01 07/09/2019 03:28:07 -70.43, -55.11 132.00 0.94 6
6 07/09/2019 04:18:50 69.99, 112.86 47.55 07/09/2019 04:17:39 70.06, 111.99 47.65 33.82 71
7 07/11/2019 18:53:58 70.53,-106.72 48.44 07/11/2019 18:55:07 70.52,-106.73 48.42 1.07 69
8 07/11/2019 19:44:40 -70.43, 60.76 131.67 07/11/2019 19:44:37 -70.41, 60.74 131.68 1.66 3
9 07/11/2019 20:35:19 70.10,-131.42 48.00 07/11/2019 20:34:07 70.14,-132.00 48.07 22.43 72
10 07/14/2019 11:10:24 70.54, 9.15 48.83 07/14/2019 11:11:35 70.55, 9.20 48.84 2.35 71
11 07/14/2019 12:01:06 -70.43, 176.64 131.28 07/14/2019 12:01:05 -70.44, 176.67 131.27 2.08 1
12 07/14/2019 12:51:47 70.21, -15.71 48.50 07/14/2019 12:50:34 70.23, -16.00 48.54 11.06 73
13 07/17/2019 03:26:53 70.65, 124.86 49.38 07/17/2019 03:28:04 70.58, 125.12 49.29 12.43 71
14 07/17/2019 04:17:33 -70.43, -67.48 130.84 07/17/2019 04:17:35 -70.42, -67.48 130.86 1.52 2
15 07/17/2019 05:08:15 70.27, 100.09 49.00 07/17/2019 05:07:02 70.31, 100.00 49.05 5.23 73
16 07/19/2019 19:43:21 70.71,-119.35 49.92 07/19/2019 19:44:32 70.66,-118.87 49.84 18.40 71
17 07/19/2019 20:34:00 -70.44, 48.40 130.37 07/19/2019 20:34:04 -70.45, 48.44 130.36 1.81 4
18 07/19/2019 21:24:43 70.33,-144.12 49.53 07/19/2019 21:23:31 70.33,-144.08 49.54 1.70 72




NCC Satellite Simultaneous Nadir Overpasses (SNOs) Prediction Service
